Date,TemperatureHighF,TemperatureAvgF,TemperatureLowF,DewpointHighF,DewpointAvgF,DewpointLowF,HumidityHigh,HumidityAvg,HumidityLow,PressureMaxIn,PressureMinIn,WindSpeedMaxMPH,WindSpeedAvgMPH,GustSpeedMaxMPH,PrecipitationSumIn
2014-3-1,40.9,35.7,33.4,36.0,33.0,29.0,95,90,63,29.68,29.53,4,0,13,0.11
2014-3-2,41.7,37.4,33.4,40.9,36.0,32.1,97,95,89,29.70,29.53,4,1,12,0.75
2014-3-3,50.9,44.0,0.0,50.0,44.9,40.9,98,92,83,29.88,29.65,10,2,28,0.38
2014-3-4,49.4,40.1,0.0,49.0,44.5,40.0,98,86,96,29.93,0.00,3,-10,0,0.28
2014-3-5,58.9,50.8,46.0,54.0,49.6,46.0,99,95,80,29.79,29.40,18,2,32,0.66
2014-3-6,51.2,48.6,47.4,50.4,47.8,46.5,98,97,96,30.04,29.45,11,1,32,0.66
2014-3-7,56.6,48.3,38.9,47.8,45.0,37.8,96,89,69,30.26,30.03,4,1,15,0.00
2014-3-8,52.4,45.1,36.3,51.9,44.1,35.3,98,96,88,30.11,29.72,8,0,21,0.35
2014-3-9,54.6,50.3,45.9,53.2,49.3,45.1,98,96,91,30.00,29.77,11,1,24,0.67
2014-3-10,52.9,45.4,0.0,45.1,42.7,39.1,98,86,66,30.44,29.92,5,1,12,0.24
2014-3-11,58.3,46.0,36.9,44.1,40.4,35.3,97,82,55,30.57,30.43,4,1,12,0.00
2014-3-12,63.7,43.6,30.5,42.2,36.0,29.5,97,78,39,30.43,30.15,5,1,11,0.00
2014-3-13,59.8,44.1,31.5,45.6,39.6,30.0,97,85,55,30.17,29.98,9,0,2,0.06
2014-3-14,53.6,48.2,42.8,49.7,46.5,41.6,97,94,74,30.33,29.86,7,1,20,0.79
2014-3-15,56.5,47.6,39.5,50.6,44.1,38.6,97,89,61,30.32,30.14,9,2,24,0.13
2014-3-16,51.8,44.7,41.0,50.0,43.8,40.1,97,97,93,30.19,29.95,9,0,17,1.67
2014-3-17,50.5,41.3,36.5,40.9,36.3,28.4,97,84,46,30.32,29.96,6,1,18,0.45
2014-3-18,50.2,38.1,0.0,43.0,37.8,34.0,96,81,68,30.33,30.16,9,0,0,0.00
2014-3-19,45.1,37.1,0.0,44.0,39.3,34.0,97,89,92,30.19,0.00,13,1,5,0.77
2014-3-20,51.7,39.5,32.2,41.9,35.5,30.6,97,87,56,30.35,30.19,6,1,19,0.03
2014-3-21,53.9,38.1,28.5,39.2,32.3,27.3,97,82,49,30.35,30.27,4,1,12,0.00
2014-3-22,51.7,39.5,28.0,39.5,32.7,26.8,96,79,42,30.31,30.20,2,0,8,0.00
2014-3-23,55.9,43.3,33.4,40.1,36.8,31.6,96,79,51,30.33,30.23,7,1,17,0.00
2014-3-24,71.3,51.5,38.5,42.2,38.1,34.3,95,66,26,30.24,29.86,4,0,11,0.00
2014-3-25,53.4,49.0,46.1,49.6,44.3,35.7,94,84,57,29.86,29.50,11,2,27,0.27
2014-3-26,53.0,46.5,39.5,46.2,42.6,38.2,97,87,66,29.60,29.50,7,1,21,0.14
2014-3-27,56.2,46.8,43.5,46.9,44.2,42.6,97,91,67,29.87,29.55,6,1,15,0.06
2014-3-28,50.1,46.5,43.5,48.0,44.4,41.0,96,93,85,29.87,29.66,2,0,7,0.24
2014-3-29,49.7,46.0,43.6,47.4,44.3,42.5,97,94,83,29.79,29.68,4,0,15,0.60
2014-3-30,52.4,45.7,40.4,45.8,42.7,39.1,97,90,66,29.98,29.79,5,1,18,0.03
2014-3-31,64.1,45.5,31.5,44.1,38.2,30.4,98,79,43,29.98,29.70,6,1,12,0.00